Location: Runa
(38.1429°N, 80.8510°W)
Time: 12:36:10
(UTC+00:00)

ISS - Pass Details

Date: 24 April 2026
Orbit: 414 x 424 km, 51.6° (Epoch: 12 May)

Event Time Altitude Azimuth Distance (km) Brightness Sun altitude
Exits shadow 08:10:17 27° 17° (NNE) 841 -1.7 -25.5°
Drops below altitude 10° 08:12:10 10° 38° (NE) 1,500 0.1 -25.2°
Sets 08:14:22 0° 46° (NE) 2,369 1.5 -24.9°
